Location: Barcelona
(41.3830°N, 2.1830°E)
Time: 13:56:33
(UTC+01:00)

ISS - Pass Details

Date: 13 December 2017
Orbit: 402 x 406 km, 51.6° (Epoch: 16 December)

Event Time Altitude Azimuth Distance (km) Brightness Sun altitude
Rises 18:01:20 0° 310° (NW) 2,331 0.4 -7.3°
Reaches altitude 10° 18:03:38 10° 323° (NW) 1,468 -0.8 -7.7°
Maximum altitude 18:06:28 26° 23° (NNE) 842 -2.6 -8.2°
Enters shadow 18:09:03 11° 80° (E) 1,379 -1.8 -8.7°
